This demonstration page uses our WeatherBlox Daily Observations layout. Learn more.

Left ArrowRight Arrow

40.92945, -100.16068

Hourly Observations for June 11, 2016

Temp ( °F °C ) Dew Point ( °F °C ) Humidity (%) Winds ( mph kmh ) Pressure ( in mb ) Visibility ( mi km ) Precip ( " mm )
12:15 am 00:15 Clear 80 26.6 62 16.6 54 54 S 15 24 29.77 1008 10 16 N/A
12:35 am 00:35 Clear 79 26.1 62 16.5 56 56 SSW 13 20 29.77 1008 10 16 N/A
12:55 am 00:55 Clear 79 26 61 16.1 54 54 SSW 12 19 29.77 1008 10 16 N/A
1:15 am 01:15 Clear 78 25.5 61 16 56 56 SSW 13 20 29.80 1009 10 16 N/A
1:35 am 01:35 Clear 78 25.4 61 16 56 56 SW 8 13 29.80 1009 10 16 N/A
1:55 am 01:55 Clear 76 24.5 61 16 59 59 SSW 8 13 29.80 1009 10 16 N/A
2:15 am 02:15 Clear 76 24.2 61 15.9 60 60 SSW 6 9 29.83 1010 10 16 N/A
2:35 am 02:35 Clear 75 23.7 60 15.8 61 61 SSW 3 6 29.83 1010 10 16 N/A
2:55 am 02:55 Clear 74 23.1 60 15.7 63 63 Calm 29.83 1010 10 16 N/A
3:15 am 03:15 Clear 73 22.6 60 15.6 65 65 SSE 3 6 29.85 1011 10 16 N/A
3:35 am 03:35 Clear 73 22.9 60 15.7 64 64 S 5 7 29.83 1010 10 16 N/A
3:55 am 03:55 Clear 73 22.5 60 15.8 66 66 S 7 11 29.85 1011 10 16 N/A
4:15 am 04:15 Clear 73 22.9 61 16 65 65 SSW 3 6 29.83 1010 10 16 N/A
4:35 am 04:35 Clear 74 23.2 61 15.9 64 64 SW 3 6 29.83 1010 10 16 N/A
4:55 am 04:55 Clear 73 23 61 15.9 64 64 Calm 29.83 1010 10 16 N/A
5:15 am 05:15 Clear 74 23.2 60 15.8 63 63 SW 6 9 29.83 1010 10 16 N/A
5:35 am 05:35 Clear 73 22.8 60 15.8 65 65 Calm 29.83 1010 10 16 N/A
5:55 am 05:55 Clear 67 19.7 59 15.2 75 75 Calm 29.85 1011 10 16 N/A
6:15 am 06:15 Sunny 65 18.6 59 15 80 80 Calm 29.88 1012 10 16 N/A
6:35 am 06:35 Sunny 65 18.5 60 15.4 82 82 Calm 29.91 1013 10 16 N/A
6:55 am 06:55 Sunny 66 18.8 60 15.5 81 81 Calm 29.91 1013 10 16 N/A
7:15 am 07:15 Sunny 66 18.8 61 16 84 84 Calm 29.91 1013 10 16 N/A
7:35 am 07:35 Sunny 70 21.1 62 16.9 77 77 SSE 5 7 29.88 1012 10 16 N/A
7:55 am 07:55 Sunny 73 22.5 64 17.6 74 74 SSE 7 11 29.88 1012 7 11 N/A
8:15 am 08:15 Sunny 74 23.1 64 17.5 71 71 S 6 9 29.85 1011 10 16 N/A
8:35 am 08:35 Sunny 74 23.5 64 17.6 70 70 S 8 13 29.85 1011 10 16 N/A
8:55 am 08:55 Sunny 76 24.2 64 17.9 68 68 S 9 15 29.85 1011 10 16 N/A
9:15 am 09:15 Sunny 76 24.7 64 17.8 66 66 SSW 10 17 29.85 1011 10 16 N/A
9:35 am 09:35 Sunny 79 26.2 64 18 61 61 SSW 12 19 29.85 1011 10 16 N/A
9:55 am 09:55 Sunny 81 27 65 18.2 59 59 S 9 15 29.83 1010 10 16 N/A
10:15 am 10:15 Sunny 82 27.5 65 18.4 58 58 SSW 10 17 29.83 1010 10 16 N/A
10:35 am 10:35 Sunny 83 28.6 65 18.5 54 54 SSW 9 15 29.83 1010 10 16 N/A
10:55 am 10:55 Sunny 84 29 65 18.6 53 53 SSE 7 11 29.83 1010 10 16 N/A
11:15 am 11:15 Sunny 85 29.2 65 18.5 53 53 S 7 11 29.83 1010 10 16 N/A
11:35 am 11:35 Sunny 86 30 66 18.7 51 51 S 8 13 29.83 1010 10 16 N/A
11:55 am 11:55 Sunny 87 30.8 66 18.7 48 48 S 14 22 29.80 1009 10 16 N/A
12:15 pm 12:15 Sunny 89 31.7 66 18.8 46 46 S 15 24 29.80 1009 10 16 N/A
12:35 pm 12:35 Sunny 91 32.5 65 18.6 44 44 S 14 22 29.80 1009 10 16 N/A
12:55 pm 12:55 Sunny 91 32.5 65 18.6 44 44 S 17 28 29.80 1009 10 16 N/A
1:15 pm 13:15 Sunny 92 33.3 65 18.6 42 42 S 16 26 29.77 1008 10 16 N/A
1:35 pm 13:35 Sunny 92 33.6 65 18.2 40 40 S 17 28 29.77 1008 10 16 N/A
1:55 pm 13:55 Sunny 93 33.9 64 17.6 38 38 S 20 31 29.74 1007 10 16 N/A
2:15 pm 14:15 Sunny 94 34.2 64 18 38 38 S 17 28 29.74 1007 10 16 N/A
2:35 pm 14:35 Sunny 94 34.7 64 17.7 36 36 S 17 28 29.74 1007 10 16 N/A
2:55 pm 14:55 Sunny 94 34.7 64 17.6 36 36 S 23 37 29.74 1007 10 16 N/A
3:15 pm 15:15 Sunny 95 34.8 64 18 37 37 S 18 30 29.74 1007 10 16 N/A
3:35 pm 15:35 Sunny 95 35 62 16.7 34 34 S 22 35 29.74 1007 10 16 N/A
3:55 pm 15:55 Sunny 95 35.2 62 16.7 33 33 S 22 35 29.74 1007 10 16 N/A
4:15 pm 16:15 Sunny 95 35.1 62 16.8 34 34 S 18 30 29.74 1007 10 16 N/A
4:35 pm 16:35 Sunny 95 35 62 16.7 34 34 S 17 28 29.71 1006 10 16 N/A
4:55 pm 16:55 Sunny 95 35 62 16.8 34 34 S 20 31 29.71 1006 10 16 N/A
5:15 pm 17:15 Sunny 94 34.6 62 16.9 35 35 S 20 31 29.71 1006 10 16 N/A
5:35 pm 17:35 Sunny 94 34.4 63 17.2 36 36 S 20 31 29.71 1006 10 16 N/A
5:55 pm 17:55 Sunny 94 34.4 62 16.6 35 35 S 20 31 29.71 1006 10 16 N/A
6:15 pm 18:15 Sunny 94 34.3 61 16.2 34 34 S 20 31 29.71 1006 10 16 N/A
6:35 pm 18:35 Sunny 94 34.4 60 15.7 33 33 S 21 33 29.71 1006 10 16 N/A
6:55 pm 18:55 Sunny 93 33.9 61 16 34 34 S 17 28 29.71 1006 10 16 N/A
7:15 pm 19:15 Sunny 92 33.4 60 15.6 34 34 S 21 33 29.71 1006 10 16 N/A
7:35 pm 19:35 Sunny 91 32.6 60 15.6 36 36 S 17 28 29.74 1007 10 16 N/A
7:55 pm 19:55 Sunny 90 32.1 61 16.3 39 39 SSE 16 26 29.74 1007 10 16 N/A
8:15 pm 20:15 Sunny 89 31.5 62 16.5 40 40 SSE 14 22 29.74 1007 10 16 N/A
8:35 pm 20:35 Sunny 87 30.7 62 16.9 43 43 SSE 12 19 29.74 1007 10 16 N/A
8:55 pm 20:55 Sunny 86 30.1 62 16.8 45 45 SSE 13 20 29.77 1008 10 16 N/A
9:15 pm 21:15 Clear 85 29.7 62 16.7 46 46 SSE 13 20 29.80 1009 10 16 N/A
9:35 pm 21:35 Clear 84 29.1 62 16.7 47 47 SE 15 24 29.80 1009 10 16 N/A
9:55 pm 21:55 Clear 83 28.5 62 16.8 49 49 SE 10 17 29.83 1010 10 16 N/A
10:15 pm 22:15 Clear 83 28.2 62 16.8 50 50 SE 13 20 29.83 1010 10 16 N/A
10:35 pm 22:35 Clear 82 27.8 62 16.5 50 50 SE 13 20 29.83 1010 10 16 N/A
10:55 pm 22:55 Clear 82 27.5 61 16.2 50 50 SSE 14 22 29.83 1010 10 16 N/A
11:15 pm 23:15 Clear 81 27.1 61 16 51 51 SSE 12 19 29.83 1010 10 16 N/A
11:35 pm 23:35 Clear 81 27 61 16 51 51 SSE 13 20 29.83 1010 10 16 N/A
11:55 pm 23:55 Clear 80 26.7 61 16.3 53 53 SSE 13 20 29.83 1010 10 16 N/A

Powered by AerisWeather